Weather observations for the past three days for
Clarksburg, Clarksburg Benedum Airport
Imperial (Metric)
Date Time (edt) Wind (mph) Vis. (mi.) Weather Sky Cond. Temperature (ºF) Relative Humidity Wind Chill (°F) Heat Index (°F) Pressure Precipitation (in)
Air Dwpt 6 hour altimeter (in) sea level (mb) 1 hr 3 hr 6 hr
Max. Min.
17 03:53 S 3 10.00 Fair CLR 70 66.9 90% 29.92 1011.5
17 02:53 S 3 10.00 A Few Clouds FEW100 70 66.9 90% 29.92 1011.6
17 01:53 Calm 10.00 Fair CLR 70 68 75 70 93% 29.93 1011.6
17 00:53 Calm 10.00 Fair CLR 72 66.9 84% 29.92 1011.5
16 23:53 S 5 10.00 Fair CLR 72 68 87% 29.92 1011.4
16 22:53 S 6 10.00 Fair CLR 73.9 68 82% 29.93 1011.6
16 21:53 S 3 10.00 A Few Clouds FEW090 73.9 69.1 85% 29.94 1012.0
16 20:53 S 6 10.00 Mostly Cloudy BKN120 73.9 70 88% 29.94 1012.0
16 19:53 S 5 10.00 Fair CLR 75 70 95 73 84% 75 29.92 1011.4
16 18:53 S 7 10.00 Mostly Cloudy BKN120 75 70 84% 75 29.92 1011.6
16 17:53 S 9 10.00 A Few Clouds FEW070 FEW090 73 70 90% 29.93 1012.1
16 16:53 W 10 9.00 Overcast SCT070 BKN085 OVC110 75.9 71.1 85% 76 29.95 1012.6
16 15:53 Calm 10.00 A Few Clouds FEW085 FEW110 80.1 72 76% 84 29.87 1009.7
16 14:53 W 13 G 23 0.75 Heavy Rain SCT035 BKN055 OVC100 78.1 69.1 74% 80 29.9 1010.8
16 13:53 S 10 G 21 10.00 Partly Cloudy SCT065 95 66 96.1 77 39% 98 29.88 1010.0
16 12:53 SW 14 10.00 Partly Cloudy SCT055 91.9 64.9 41% 94 29.91 1010.9
16 11:53 SW 13 G 21 10.00 Partly Cloudy SCT046 SCT055 91.9 66.9 44% 95 29.92 1011.2
16 10:53 W 10 G 18 10.00 Fair CLR 88 68 52% 92 29.93 1011.6
16 09:53 SW 7 G 18 10.00 Fair CLR 86 69.1 57% 90 29.93 1011.5
16 08:53 S 10 10.00 Fair CLR 82.9 70 65% 87 29.9 1010.7
16 07:53 S 7 10.00 Fair CLR 77 68 77 71.1 74% 79 29.9 1010.6
16 06:53 S 5 10.00 A Few Clouds FEW044 75 66.9 76% 76 29.91 1010.8
16 05:53 S 5 10.00 A Few Clouds FEW042 73 66 79% 29.91 1010.9
16 04:53 S 5 10.00 Fair CLR 72 64.9 79% 29.89 1010.3
16 03:53 Calm 10.00 Fair CLR 73 64.9 76% 29.9 1010.5
16 02:53 SW 5 10.00 Mostly Cloudy SCT060 BKN080 75 64 69% 77 29.9 1010.7
16 01:53 Calm 10.00 A Few Clouds FEW090 73 63 91 72 71% 29.91 1010.7
16 00:53 Calm 10.00 A Few Clouds FEW070 73.9 63 69% 29.91 1010.9
15 23:53 Calm 10.00 Fair CLR 75 62.1 64% 77 29.9 1010.8
15 22:53 SE 3 10.00 A Few Clouds FEW100 75.9 61 60% 78 29.91 1010.9
15 21:53 Calm 10.00 Fair CLR 81 60.1 49% 82 29.92 1011.3
15 20:53 SW 6 10.00 Partly Cloudy SCT110 84.9 59 42% 85 29.89 1010.5
15 19:53 W 7 10.00 A Few Clouds FEW110 91 57.9 98.1 91 33% 90 29.9 1010.8
15 18:53 W 8 10.00 Fair CLR 93.9 62.1 35% 95 29.89 1010.3
15 17:53 W 9 G 18 10.00 A Few Clouds FEW080 96.1 60.1 30% 96 29.9 1010.4
15 16:53 W 13 G 21 10.00 A Few Clouds FEW080 96.1 59 29% 96 29.9 1010.8
15 15:53 SW 13 G 23 10.00 A Few Clouds FEW080 98.1 59 27% 98 29.93 1011.6
15 14:53 W 10 G 22 10.00 A Few Clouds FEW070 93.9 62.1 35% 95 29.95 1012.2
15 13:53 SW 10 G 21 10.00 Fair CLR 93.9 64.9 93.9 72 38% 96 29.96 1012.8
15 12:53 W 9 10.00 Fair CLR 91.9 66 43% 95 30 1014.0
15 11:53 SW 8 G 18 10.00 Fair CLR 89.1 68 50% 93 30.01 1014.4
15 10:53 SW 10 10.00 Fair CLR 87.1 64.9 48% 89 30.02 1014.9
15 09:53 Vrbl 6 10.00 Fair CLR 82 63 53% 83 30.04 1015.5
15 08:53 SW 7 10.00 Fair CLR 78.1 62.1 58% 80 30.06 1015.9
15 07:53 S 3 10.00 Fair CLR 72 62.1 72 66.9 71% 30.05 1015.9
15 06:53 Calm 10.00 Fair CLR 68 62.1 81% 30.04 1015.6
15 05:53 SW 5 10.00 Fair CLR 68 62.1 81% 30.04 1015.4
15 04:53 Calm 10.00 Mostly Cloudy BKN100 69.1 62.1 78% 30.05 1015.7
15 03:53 SE 3 10.00 Overcast OVC075 70 63 79% 30.04 1015.4
15 02:53 S 3 10.00 Fair CLR 70 63 79% 30.04 1015.6
15 01:53 SW 5 10.00 Fair CLR 70 63 89.1 70 79% 30.05 1015.9
15 00:53 SW 8 10.00 Fair CLR 72 64 76% 30.05 1015.8
14 23:53 W 7 10.00 Fair CLR 73.9 62.1 67% 30.06 1016.0
14 22:53 W 9 10.00 Fair CLR 78.1 63 60% 80 30.03 1015.1
14 21:53 W 16 G 24 10.00 Fair CLR 82.9 61 48% 83 30.01 1014.5
14 20:53 S 7 10.00 Fair CLR 84 60.1 44% 84 29.99 1013.6
14 19:53 SW 9 10.00 A Few Clouds FEW100 89.1 62.1 93 89.1 41% 89 30.02 1014.8
14 18:53 W 6 10.00 Fair CLR 91 64 41% 93 30.02 1014.8
14 17:53 W 8 10.00 Fair CLR 91.9 64 40% 94 30.02 1015.0
14 16:53 Vrbl 6 10.00 Fair CLR 91.9 63 38% 93 30.04 1015.3
14 15:53 NW 9 10.00 Partly Cloudy SCT060 91 64 41% 93 30.05 1015.7
14 14:53 Vrbl 3 G 17 10.00 Partly Cloudy SCT060 91 63 39% 92 30.07 1016.3
14 13:53 S 5 10.00 A Few Clouds FEW055 90 64 91 73.9 42% 91 30.09 1017.2
14 12:53 W 10 10.00 Fair CLR 91 64 41% 93 30.12 1018.2
14 11:53 W 9 10.00 Partly Cloudy FEW041 SCT055 88 66.9 50% 91 30.14 1018.9
14 10:53 W 6 10.00 Fair CLR 86 66 51% 88 30.14 1018.8
14 09:53 SW 6 10.00 Fair CLR 82 66 58% 84 30.15 1019.1
14 08:53 S 6 10.00 Fair CLR 77 66 69% 79 30.15 1019.2
14 07:53 S 5 10.00 Fair CLR 73.9 64.9 73.9 68 74% 30.16 1019.4
14 06:53 Calm 10.00 Fair CLR 69.1 64.9 87% 30.14 1019.0
14 05:53 Calm 10.00 Fair CLR 68 64 87% 30.13 1018.5
14 04:53 S 3 10.00 Fair CLR 69.1 64 84% 30.13 1018.4
Date Time (edt) Wind (mph) Vis. (mi.) Weather Sky Cond. Air Dwpt Max. Min. Relative Humidity Wind Chill (°F) Heat Index (°F) altimeter (in) sea level (mb) 1 hr 3 hr 6 hr
6 hour
Temperature (ºF) Pressure Precipitation (in)